Time,TemperatureF,DewpointF,PressureIn,WindDirection,WindDirectionDegrees,WindSpeedMPH,WindSpeedGustMPH,Humidity,HourlyPrecipIn,Conditions,Clouds,dailyrainin,SoftwareType,DateUTC
2013-03-14 00:01:00,50.4,14.9,30.06,North,0,0.0,0.0,24,0.00,CLR,FEW,0.00,WeatherDisplay:10.37,2013-03-14 04:01:00,
2013-03-14 00:03:00,50.4,14.9,30.06,North,0,0.0,0.0,24,0.00,CLR,FEW,0.00,WeatherDisplay:10.37,2013-03-14 04:03:00,
2013-03-14 00:07:00,50.4,11.8,30.06,North,0,0.0,0.0,21,0.00,CLR,FEW,0.00,WeatherDisplay:10.37,2013-03-14 04:07:00,
2013-03-14 00:11:00,50.2,11.7,30.06,North,0,0.0,0.0,21,0.00,CLR,FEW,0.00,WeatherDisplay:10.37,2013-03-14 04:11:00,
2013-03-14 00:17:00,50.2,11.7,30.09,North,0,0.0,0.0,21,0.00,CLR,FEW,0.00,WeatherDisplay:10.37,2013-03-14 04:17:00,
2013-03-14 00:22:00,50.0,11.5,30.09,North,0,0.0,0.0,21,0.00,CLR,FEW,0.00,WeatherDisplay:10.37,2013-03-14 04:22:00,
2013-03-14 00:27:00,49.8,11.4,30.09,North,0,0.0,0.0,21,0.00,CLR,FEW,0.00,WeatherDisplay:10.37,2013-03-14 04:27:00,
2013-03-14 00:32:00,49.6,11.2,30.09,North,0,0.0,0.0,21,0.00,CLR,FEW,0.00,WeatherDisplay:10.37,2013-03-14 04:32:00,
2013-03-14 00:37:00,49.5,11.1,30.09,North,0,0.0,0.0,21,0.00,CLR,FEW,0.00,WeatherDisplay:10.37,2013-03-14 04:37:00,
2013-03-14 00:42:00,49.3,10.9,30.09,North,0,0.0,0.0,21,0.00,CLR,FEW,0.00,WeatherDisplay:10.37,2013-03-14 04:42:00,
2013-03-14 00:48:00,48.9,10.6,30.09,North,0,0.0,0.0,21,0.00,CLR,FEW,0.00,WeatherDisplay:10.37,2013-03-14 04:48:00,
2013-03-14 00:53:00,48.7,10.5,30.09,North,0,0.0,0.0,21,0.00,CLR,FEW,0.00,WeatherDisplay:10.37,2013-03-14 04:53:00,
2013-03-14 00:58:00,48.7,10.5,30.09,North,0,0.0,0.0,21,0.00,CLR,FEW,0.00,WeatherDisplay:10.37,2013-03-14 04:58:00,
2013-03-14 01:03:00,48.6,10.3,30.09,North,0,0.0,0.0,21,0.00,CLR,FEW,0.00,WeatherDisplay:10.37,2013-03-14 05:03:00,
2013-03-14 01:08:00,48.4,10.2,30.09,North,0,0.0,0.0,21,0.00,CLR,FEW,0.00,WeatherDisplay:10.37,2013-03-14 05:08:00,
2013-03-14 01:13:00,48.0,10.9,30.09,North,0,0.0,0.0,22,0.00,CLR,FEW,0.00,WeatherDisplay:10.37,2013-03-14 05:13:00,
2013-03-14 01:18:00,47.7,10.6,30.09,North,0,0.0,0.0,22,0.00,CLR,FEW,0.00,WeatherDisplay:10.37,2013-03-14 05:18:00,
2013-03-14 01:23:00,47.7,10.6,30.09,North,0,0.0,0.0,22,0.00,CLR,FEW,0.00,WeatherDisplay:10.37,2013-03-14 05:23:00,
2013-03-14 01:28:00,47.7,10.6,30.09,North,0,0.0,0.0,22,0.00,CLR,FEW,0.00,WeatherDisplay:10.37,2013-03-14 05:28:00,
2013-03-14 01:33:00,47.3,10.3,30.09,North,0,0.0,0.0,22,0.00,CLR,FEW,0.00,WeatherDisplay:10.37,2013-03-14 05:33:00,
2013-03-14 01:38:00,47.1,10.2,30.09,North,0,0.0,0.0,22,0.00,CLR,FEW,0.00,WeatherDisplay:10.37,2013-03-14 05:38:00,
2013-03-14 01:43:00,46.8,9.9,30.09,North,0,0.0,0.0,22,0.00,CLR,FEW,0.00,WeatherDisplay:10.37,2013-03-14 05:43:00,
2013-03-14 01:48:00,46.6,9.7,30.09,North,0,0.0,0.0,22,0.00,CLR,FEW,0.00,WeatherDisplay:10.37,2013-03-14 05:48:00,
2013-03-14 01:54:00,46.4,9.6,30.09,North,0,0.0,0.0,22,0.00,CLR,FEW,0.00,WeatherDisplay:10.37,2013-03-14 05:54:00,
2013-03-14 01:59:00,46.2,9.4,30.09,North,0,0.0,0.0,22,0.00,CLR,FEW,0.00,WeatherDisplay:10.37,2013-03-14 05:59:00,
2013-03-14 02:04:00,45.9,9.1,30.09,North,0,0.0,0.0,22,0.00,CLR,FEW,0.00,WeatherDisplay:10.37,2013-03-14 06:04:00,
2013-03-14 02:09:00,45.7,8.9,30.09,North,0,0.0,0.0,22,0.00,CLR,FEW,0.00,WeatherDisplay:10.37,2013-03-14 06:09:00,
2013-03-14 02:14:00,45.5,8.8,30.09,North,0,0.0,0.0,22,0.00,CLR,FEW,0.00,WeatherDisplay:10.37,2013-03-14 06:14:00,
2013-03-14 02:19:00,45.1,8.5,30.09,North,0,0.0,0.0,22,0.00,CLR,FEW,0.00,WeatherDisplay:10.37,2013-03-14 06:19:00,
2013-03-14 02:24:00,44.8,8.2,30.09,North,0,0.0,0.0,22,0.00,CLR,FEW,0.00,WeatherDisplay:10.37,2013-03-14 06:24:00,
2013-03-14 02:29:00,44.8,8.2,30.12,North,0,0.0,0.0,22,0.00,CLR,FEW,0.00,WeatherDisplay:10.37,2013-03-14 06:29:00,
2013-03-14 02:34:00,44.6,8.0,30.12,North,0,0.0,0.0,22,0.00,CLR,FEW,0.00,WeatherDisplay:10.37,2013-03-14 06:34:00,
2013-03-14 02:39:00,44.4,10.7,30.12,North,0,0.0,0.0,25,0.00,CLR,FEW,0.00,WeatherDisplay:10.37,2013-03-14 06:39:00,
2013-03-14 02:44:00,44.2,10.6,30.12,North,0,0.0,0.0,25,0.00,CLR,FEW,0.00,WeatherDisplay:10.37,2013-03-14 06:44:00,
2013-03-14 02:49:00,44.1,10.4,30.12,North,0,0.0,0.0,25,0.00,CLR,FEW,0.00,WeatherDisplay:10.37,2013-03-14 06:49:00,
2013-03-14 02:54:00,43.9,10.3,30.12,North,0,0.0,0.0,25,0.00,CLR,FEW,0.00,WeatherDisplay:10.37,2013-03-14 06:54:00,
2013-03-14 02:59:00,43.7,10.1,30.12,North,0,0.0,0.0,25,0.00,CLR,FEW,0.00,WeatherDisplay:10.37,2013-03-14 06:59:00,
2013-03-14 03:04:00,43.7,10.1,30.12,North,0,0.0,0.0,25,0.00,CLR,FEW,0.00,WeatherDisplay:10.37,2013-03-14 07:04:00,
2013-03-14 03:17:00,43.7,10.1,30.12,North,0,0.0,0.0,25,0.00,CLR,FEW,0.00,WeatherDisplay:10.37,2013-03-14 07:17:00,
2013-03-14 03:22:00,43.2,9.7,30.12,North,0,0.0,0.0,25,0.00,CLR,FEW,0.00,WeatherDisplay:10.37,2013-03-14 07:22:00,
2013-03-14 03:27:00,42.8,9.3,30.12,North,0,0.0,0.0,25,0.00,CLR,FEW,0.00,WeatherDisplay:10.37,2013-03-14 07:27:00,
2013-03-14 03:32:00,42.8,11.9,30.12,North,0,0.0,0.0,28,0.00,CLR,FEW,0.00,WeatherDisplay:10.37,2013-03-14 07:32:00,
2013-03-14 03:37:00,42.8,11.9,30.12,North,0,0.0,0.0,28,0.00,CLR,FEW,0.00,WeatherDisplay:10.37,2013-03-14 07:37:00,
2013-03-14 03:42:00,42.6,11.7,30.12,North,0,0.0,0.0,28,0.00,CLR,FEW,0.00,WeatherDisplay:10.37,2013-03-14 07:42:00,
2013-03-14 03:47:00,42.6,10.1,30.12,North,0,0.0,0.0,26,0.00,CLR,FEW,0.00,WeatherDisplay:10.37,2013-03-14 07:47:00,
2013-03-14 03:53:00,42.6,10.1,30.12,North,0,0.0,0.0,26,0.00,CLR,FEW,0.00,WeatherDisplay:10.37,2013-03-14 07:53:00,
2013-03-14 04:13:00,41.9,9.5,30.15,North,0,0.0,0.0,26,0.00,CLR,FEW,0.00,WeatherDisplay:10.37,2013-03-14 08:13:00,
2013-03-14 04:18:00,41.7,9.3,30.15,North,0,0.0,0.0,26,0.00,CLR,FEW,0.00,WeatherDisplay:10.37,2013-03-14 08:18:00,
2013-03-14 04:23:00,41.5,9.1,30.15,North,0,0.0,0.0,26,0.00,CLR,FEW,0.00,WeatherDisplay:10.37,2013-03-14 08:23:00,
2013-03-14 04:28:00,41.4,9.0,30.15,North,0,0.0,0.0,26,0.00,CLR,FEW,0.00,WeatherDisplay:10.37,2013-03-14 08:28:00,
2013-03-14 04:33:00,41.2,8.8,30.15,North,0,0.0,0.0,26,0.00,CLR,FEW,0.00,WeatherDisplay:10.37,2013-03-14 08:33:00,
2013-03-14 04:39:00,41.2,8.8,30.15,North,0,0.0,0.0,26,0.00,CLR,FEW,0.00,WeatherDisplay:10.37,2013-03-14 08:39:00,
2013-03-14 04:44:00,40.8,8.5,30.15,North,0,0.0,0.0,26,0.00,CLR,FEW,0.00,WeatherDisplay:10.37,2013-03-14 08:44:00,
2013-03-14 04:49:00,40.6,8.4,30.15,North,0,0.0,0.0,26,0.00,CLR,FEW,0.00,WeatherDisplay:10.37,2013-03-14 08:49:00,
2013-03-14 04:54:00,40.5,8.2,30.15,North,0,0.0,0.0,26,0.00,CLR,FEW,0.00,WeatherDisplay:10.37,2013-03-14 08:54:00,
2013-03-14 04:59:00,40.3,8.1,30.15,North,0,0.0,0.0,26,0.00,CLR,FEW,0.00,WeatherDisplay:10.37,2013-03-14 08:59:00,
2013-03-14 05:04:00,40.3,8.1,30.15,North,0,0.0,0.0,26,0.00,CLR,FEW,0.00,WeatherDisplay:10.37,2013-03-14 09:04:00,
2013-03-14 05:09:00,40.1,7.9,30.15,North,0,0.0,0.0,26,0.00,CLR,FEW,0.00,WeatherDisplay:10.37,2013-03-14 09:09:00,
2013-03-14 05:14:00,39.7,7.6,30.15,North,0,0.0,0.0,26,0.00,CLR,FEW,0.00,WeatherDisplay:10.37,2013-03-14 09:14:00,
2013-03-14 05:19:00,39.7,7.6,30.15,North,0,0.0,0.0,26,0.00,CLR,FEW,0.00,WeatherDisplay:10.37,2013-03-14 09:19:00,
2013-03-14 05:24:00,39.6,7.4,30.15,North,0,0.0,0.0,26,0.00,CLR,FEW,0.00,WeatherDisplay:10.37,2013-03-14 09:24:00,
2013-03-14 05:29:00,39.4,7.3,30.15,North,0,0.0,0.0,26,0.00,CLR,FEW,0.00,WeatherDisplay:10.37,2013-03-14 09:29:00,
2013-03-14 05:34:00,39.4,7.3,30.15,North,0,0.0,0.0,26,0.00,CLR,FEW,0.00,WeatherDisplay:10.37,2013-03-14 09:34:00,
2013-03-14 05:39:00,39.2,7.1,30.15,North,0,0.0,0.0,26,0.00,CLR,FEW,0.00,WeatherDisplay:10.37,2013-03-14 09:39:00,
2013-03-14 05:44:00,39.2,7.1,30.18,North,0,0.0,0.0,26,0.00,CLR,FEW,0.00,WeatherDisplay:10.37,2013-03-14 09:44:00,
2013-03-14 05:49:00,39.0,7.0,30.18,North,0,0.0,0.0,26,0.00,CLR,FEW,0.00,WeatherDisplay:10.37,2013-03-14 09:49:00,
2013-03-14 05:54:00,39.0,7.0,30.18,North,0,0.0,0.0,26,0.00,CLR,FEW,0.00,WeatherDisplay:10.37,2013-03-14 09:54:00,
2013-03-14 05:59:00,38.8,6.8,30.18,North,0,0.0,0.0,26,0.00,CLR,FEW,0.00,WeatherDisplay:10.37,2013-03-14 09:59:00,
2013-03-14 06:04:00,38.7,6.7,30.18,North,0,0.0,0.0,26,0.00,CLR,FEW,0.00,WeatherDisplay:10.37,2013-03-14 10:04:00,
2013-03-14 06:09:00,38.5,6.5,30.18,North,0,0.0,0.0,26,0.00,CLR,FEW,0.00,WeatherDisplay:10.37,2013-03-14 10:09:00,
2013-03-14 06:14:00,38.5,6.5,30.18,North,0,0.0,0.0,26,0.00,CLR,FEW,0.00,WeatherDisplay:10.37,2013-03-14 10:14:00,
2013-03-14 06:19:00,38.3,6.4,30.18,North,0,0.0,0.0,26,0.00,CLR,FEW,0.00,WeatherDisplay:10.37,2013-03-14 10:19:00,
2013-03-14 06:24:00,38.1,6.2,30.18,North,0,0.0,0.0,26,0.00,CLR,FEW,0.00,WeatherDisplay:10.37,2013-03-14 10:24:00,
2013-03-14 06:29:00,38.1,6.2,30.18,North,0,0.0,0.0,26,0.00,CLR,FEW,0.00,WeatherDisplay:10.37,2013-03-14 10:29:00,
2013-03-14 06:34:00,37.9,6.0,30.18,North,0,0.0,0.0,26,0.00,CLR,FEW,0.00,WeatherDisplay:10.37,2013-03-14 10:34:00,
2013-03-14 06:39:00,37.8,5.9,30.18,North,0,0.0,0.0,26,0.00,CLR,FEW,0.00,WeatherDisplay:10.37,2013-03-14 10:39:00,
2013-03-14 06:44:00,37.8,5.9,30.21,North,0,0.0,0.0,26,0.00,CLR,FEW,0.00,WeatherDisplay:10.37,2013-03-14 10:44:00,
2013-03-14 06:49:00,37.6,5.7,30.21,North,0,0.0,0.0,26,0.00,CLR,FEW,0.00,WeatherDisplay:10.37,2013-03-14 10:49:00,
2013-03-14 06:54:00,37.4,5.6,30.21,North,0,0.0,0.0,26,0.00,CLR,FEW,0.00,WeatherDisplay:10.37,2013-03-14 10:54:00,
2013-03-14 06:59:00,37.4,5.6,30.21,North,0,0.0,0.0,26,0.00,CLR,FEW,0.00,WeatherDisplay:10.37,2013-03-14 10:59:00,
2013-03-14 07:05:00,37.2,6.2,30.21,North,0,0.0,0.0,27,0.00,CLR,FEW,0.00,WeatherDisplay:10.37,2013-03-14 11:05:00,
2013-03-14 07:10:00,37.0,6.1,30.21,North,0,0.0,0.0,27,0.00,CLR,FEW,0.00,WeatherDisplay:10.37,2013-03-14 11:10:00,
2013-03-14 07:15:00,36.9,5.9,30.21,North,0,0.0,0.0,27,0.00,CLR,FEW,0.00,WeatherDisplay:10.37,2013-03-14 11:15:00,
2013-03-14 07:20:00,36.9,5.9,30.21,North,0,0.0,0.0,27,0.00,CLR,FEW,0.00,WeatherDisplay:10.37,2013-03-14 11:20:00,
2013-03-14 07:25:00,36.7,5.8,30.21,North,0,0.0,0.0,27,0.00,CLR,FEW,0.00,WeatherDisplay:10.37,2013-03-14 11:25:00,
2013-03-14 07:30:00,36.7,5.8,30.21,North,0,0.0,0.0,27,0.00,CLR,FEW,0.00,WeatherDisplay:10.37,2013-03-14 11:30:00,
2013-03-14 07:35:00,36.5,5.6,30.21,North,0,0.0,0.0,27,0.00,CLR,FEW,0.00,WeatherDisplay:10.37,2013-03-14 11:35:00,
2013-03-14 07:40:00,36.5,5.6,30.21,North,0,0.0,0.0,27,0.00,CLR,FEW,0.00,WeatherDisplay:10.37,2013-03-14 11:40:00,
2013-03-14 07:45:00,36.5,5.6,30.24,North,0,0.0,0.0,27,0.00,CLR,FEW,0.00,WeatherDisplay:10.37,2013-03-14 11:45:00,
2013-03-14 07:50:00,36.5,5.6,30.24,North,0,0.0,0.0,27,0.00,CLR,FEW,0.00,WeatherDisplay:10.37,2013-03-14 11:50:00,
2013-03-14 07:55:00,36.3,5.5,30.24,North,0,0.0,0.0,27,0.00,CLR,FEW,0.00,WeatherDisplay:10.37,2013-03-14 11:55:00,
2013-03-14 08:00:00,36.3,5.5,30.24,North,0,0.0,0.0,27,0.00,CLR,FEW,0.00,WeatherDisplay:10.37,2013-03-14 12:00:00,
2013-03-14 08:05:00,36.5,5.6,30.24,North,0,0.0,0.0,27,0.00,CLR,FEW,0.00,WeatherDisplay:10.37,2013-03-14 12:05:00,
2013-03-14 08:10:00,36.7,7.4,30.24,North,0,0.0,0.0,29,0.00,CLR,FEW,0.00,WeatherDisplay:10.37,2013-03-14 12:10:00,
2013-03-14 08:15:00,37.0,7.7,30.24,North,0,0.0,0.0,29,0.00,CLR,FEW,0.00,WeatherDisplay:10.37,2013-03-14 12:15:00,
2013-03-14 08:20:00,37.6,8.1,30.24,North,0,0.0,0.0,29,0.00,CLR,FEW,0.00,WeatherDisplay:10.37,2013-03-14 12:20:00,
2013-03-14 08:25:00,37.9,8.5,30.24,North,0,0.0,0.0,29,0.00,CLR,FEW,0.00,WeatherDisplay:10.37,2013-03-14 12:25:00,
2013-03-14 08:30:00,38.1,8.6,30.24,North,0,0.0,0.0,29,0.00,CLR,FEW,0.00,WeatherDisplay:10.37,2013-03-14 12:30:00,
2013-03-14 08:35:00,38.7,9.1,30.24,North,0,0.0,0.0,29,0.00,CLR,FEW,0.00,WeatherDisplay:10.37,2013-03-14 12:35:00,
2013-03-14 08:40:00,39.0,9.4,30.24,North,0,0.0,0.0,29,0.00,CLR,FEW,0.00,WeatherDisplay:10.37,2013-03-14 12:40:00,
2013-03-14 08:45:00,39.2,7.1,30.27,North,0,0.0,0.0,26,0.00,CLR,FEW,0.00,WeatherDisplay:10.37,2013-03-14 12:45:00,
2013-03-14 08:50:00,39.6,7.4,30.27,North,0,0.0,0.0,26,0.00,CLR,FEW,0.00,WeatherDisplay:10.37,2013-03-14 12:50:00,
2013-03-14 08:55:00,39.9,7.7,30.27,North,0,0.0,0.0,26,0.00,CLR,FEW,0.00,WeatherDisplay:10.37,2013-03-14 12:55:00,
2013-03-14 09:00:00,40.5,8.2,30.27,North,0,0.0,0.0,26,0.00,CLR,FEW,0.00,WeatherDisplay:10.37,2013-03-14 13:00:00,
2013-03-14 09:05:00,40.6,8.4,30.27,North,0,0.0,0.0,26,0.00,CLR,FEW,0.00,WeatherDisplay:10.37,2013-03-14 13:05:00,
2013-03-14 09:10:00,40.6,5.7,30.27,North,0,0.0,0.0,23,0.00,CLR,FEW,0.00,WeatherDisplay:10.37,2013-03-14 13:10:00,
2013-03-14 09:15:00,41.0,8.7,30.27,North,0,0.0,0.0,26,0.00,CLR,FEW,0.00,WeatherDisplay:10.37,2013-03-14 13:15:00,
2013-03-14 09:20:00,41.5,6.4,30.27,North,0,0.0,0.0,23,0.00,CLR,FEW,0.00,WeatherDisplay:10.37,2013-03-14 13:20:00,
2013-03-14 09:25:00,41.7,6.6,30.27,North,0,0.0,0.0,23,0.00,CLR,FEW,0.00,WeatherDisplay:10.37,2013-03-14 13:25:00,
2013-03-14 09:30:00,41.7,6.6,30.27,North,0,0.0,0.0,23,0.00,CLR,FEW,0.00,WeatherDisplay:10.37,2013-03-14 13:30:00,
2013-03-14 09:35:00,41.9,6.7,30.27,North,0,0.0,0.0,23,0.00,CLR,FEW,0.00,WeatherDisplay:10.37,2013-03-14 13:35:00,
2013-03-14 09:40:00,42.3,7.0,30.27,North,0,0.0,0.0,23,0.00,CLR,FEW,0.00,WeatherDisplay:10.37,2013-03-14 13:40:00,
2013-03-14 09:45:00,42.6,7.3,30.27,North,0,0.0,0.0,23,0.00,CLR,FEW,0.00,WeatherDisplay:10.37,2013-03-14 13:45:00,
2013-03-14 09:50:00,42.4,7.2,30.27,North,0,0.0,0.0,23,0.00,CLR,FEW,0.00,WeatherDisplay:10.37,2013-03-14 13:50:00,
2013-03-14 09:55:00,42.8,7.5,30.27,North,0,0.0,0.0,23,0.00,CLR,FEW,0.00,WeatherDisplay:10.37,2013-03-14 13:55:00,
2013-03-14 10:00:00,43.0,7.6,30.27,North,0,0.0,0.0,23,0.00,CLR,FEW,0.00,WeatherDisplay:10.37,2013-03-14 14:00:00,
2013-03-14 10:05:00,43.0,7.6,30.27,North,0,0.0,0.0,23,0.00,CLR,FEW,0.00,WeatherDisplay:10.37,2013-03-14 14:05:00,
2013-03-14 10:11:00,43.3,8.0,30.27,North,0,0.0,0.0,23,0.00,CLR,FEW,0.00,WeatherDisplay:10.37,2013-03-14 14:11:00,
2013-03-14 10:16:00,43.3,4.9,30.27,North,0,0.0,0.0,20,0.00,CLR,FEW,0.00,WeatherDisplay:10.37,2013-03-14 14:16:00,
2013-03-14 10:21:00,43.3,4.9,30.27,North,0,0.0,0.0,20,0.00,CLR,FEW,0.00,WeatherDisplay:10.37,2013-03-14 14:21:00,
2013-03-14 10:26:00,43.3,8.0,30.27,North,0,0.0,0.0,23,0.00,CLR,FEW,0.00,WeatherDisplay:10.37,2013-03-14 14:26:00,
2013-03-14 10:31:00,43.7,8.3,30.27,North,0,0.0,0.0,23,0.00,CLR,FEW,0.00,WeatherDisplay:10.37,2013-03-14 14:31:00,
2013-03-14 10:37:00,43.7,5.2,30.27,North,0,0.0,0.0,20,0.00,CLR,FEW,0.00,WeatherDisplay:10.37,2013-03-14 14:37:00,
2013-03-14 10:42:00,43.9,5.3,30.27,North,0,0.0,0.0,20,0.00,CLR,FEW,0.00,WeatherDisplay:10.37,2013-03-14 14:42:00,
2013-03-14 10:47:00,44.2,8.7,30.27,North,0,0.0,0.0,23,0.00,CLR,FEW,0.00,WeatherDisplay:10.37,2013-03-14 14:47:00,
2013-03-14 10:52:00,44.4,8.9,30.27,North,0,0.0,0.0,23,0.00,CLR,FEW,0.00,WeatherDisplay:10.37,2013-03-14 14:52:00,
2013-03-14 10:57:00,45.0,8.3,30.27,North,0,0.0,0.0,22,0.00,CLR,FEW,0.00,WeatherDisplay:10.37,2013-03-14 14:57:00,
2013-03-14 11:02:00,45.5,6.7,30.27,North,0,0.0,0.0,20,0.00,CLR,FEW,0.00,WeatherDisplay:10.37,2013-03-14 15:02:00,
2013-03-14 11:07:00,45.3,6.5,30.27,North,0,0.0,0.0,20,0.00,CLR,FEW,0.00,WeatherDisplay:10.37,2013-03-14 15:07:00,
2013-03-14 11:12:00,45.3,6.5,30.27,North,0,0.0,0.0,20,0.00,CLR,FEW,0.00,WeatherDisplay:10.37,2013-03-14 15:12:00,
2013-03-14 11:17:00,45.3,6.5,30.27,North,0,0.0,0.0,20,0.00,CLR,FEW,0.00,WeatherDisplay:10.37,2013-03-14 15:17:00,
2013-03-14 11:22:00,45.5,6.7,30.27,North,0,0.0,0.0,20,0.00,CLR,FEW,0.00,WeatherDisplay:10.37,2013-03-14 15:22:00,
2013-03-14 11:28:00,45.7,6.8,30.27,North,0,0.0,0.0,20,0.00,CLR,FEW,0.00,WeatherDisplay:10.37,2013-03-14 15:28:00,
2013-03-14 11:33:00,46.2,7.3,30.24,North,0,0.0,0.0,20,0.00,CLR,FEW,0.00,WeatherDisplay:10.37,2013-03-14 15:33:00,
2013-03-14 11:38:00,46.2,7.3,30.24,North,0,0.0,0.0,20,0.00,CLR,FEW,0.00,WeatherDisplay:10.37,2013-03-14 15:38:00,
2013-03-14 11:43:00,46.4,9.6,30.24,North,0,0.0,0.0,22,0.00,CLR,FEW,0.00,WeatherDisplay:10.37,2013-03-14 15:43:00,
2013-03-14 11:48:00,46.6,9.7,30.24,North,0,0.0,0.0,22,0.00,CLR,FEW,0.00,WeatherDisplay:10.37,2013-03-14 15:48:00,
2013-03-14 11:54:00,46.9,6.7,30.24,North,0,0.0,0.0,19,0.00,CLR,FEW,0.00,WeatherDisplay:10.37,2013-03-14 15:54:00,
2013-03-14 11:59:00,47.1,10.2,30.24,North,0,0.0,0.0,22,0.00,CLR,FEW,0.00,WeatherDisplay:10.37,2013-03-14 15:59:00,
2013-03-14 12:04:00,47.3,7.0,30.24,North,0,0.0,0.0,19,0.00,CLR,FEW,0.00,WeatherDisplay:10.37,2013-03-14 16:04:00,
2013-03-14 12:09:00,47.1,10.2,30.24,North,0,0.0,0.0,22,0.00,CLR,FEW,0.00,WeatherDisplay:10.37,2013-03-14 16:09:00,
2013-03-14 12:14:00,46.9,6.7,30.24,North,0,0.0,0.0,19,0.00,CLR,FEW,0.00,WeatherDisplay:10.37,2013-03-14 16:14:00,
2013-03-14 12:19:00,46.9,6.7,30.24,North,0,0.0,0.0,19,0.00,CLR,FEW,0.00,WeatherDisplay:10.37,2013-03-14 16:19:00,
2013-03-14 12:24:00,46.9,6.7,30.24,North,0,0.0,0.0,19,0.00,CLR,FEW,0.00,WeatherDisplay:10.37,2013-03-14 16:24:00,
2013-03-14 12:29:00,47.7,10.6,30.24,North,0,0.0,0.0,22,0.00,CLR,FEW,0.00,WeatherDisplay:10.37,2013-03-14 16:29:00,
2013-03-14 12:34:00,48.2,7.8,30.24,North,0,0.0,0.0,19,0.00,CLR,FEW,0.00,WeatherDisplay:10.37,2013-03-14 16:34:00,
2013-03-14 12:39:00,48.2,7.8,30.24,North,0,0.0,0.0,19,0.00,CLR,FEW,0.00,WeatherDisplay:10.37,2013-03-14 16:39:00,
2013-03-14 12:44:00,48.7,8.2,30.24,North,0,0.0,0.0,19,0.00,CLR,FEW,0.00,WeatherDisplay:10.37,2013-03-14 16:44:00,
2013-03-14 12:49:00,48.9,8.4,30.24,North,0,0.0,0.0,19,0.00,CLR,FEW,0.00,WeatherDisplay:10.37,2013-03-14 16:49:00,
2013-03-14 12:54:00,48.9,8.4,30.24,North,0,0.0,0.0,19,0.00,CLR,FEW,0.00,WeatherDisplay:10.37,2013-03-14 16:54:00,
2013-03-14 12:59:00,48.6,8.1,30.21,North,0,0.0,0.0,19,0.00,CLR,FEW,0.00,WeatherDisplay:10.37,2013-03-14 16:59:00,
2013-03-14 13:04:00,48.9,8.4,30.21,North,0,0.0,0.0,19,0.00,CLR,FEW,0.00,WeatherDisplay:10.37,2013-03-14 17:04:00,
2013-03-14 13:09:00,49.3,8.7,30.21,North,0,0.0,0.0,19,0.00,CLR,FEW,0.00,WeatherDisplay:10.37,2013-03-14 17:09:00,
2013-03-14 13:15:00,49.5,8.8,30.21,North,0,0.0,0.0,19,0.00,CLR,FEW,0.00,WeatherDisplay:10.37,2013-03-14 17:15:00,
2013-03-14 13:20:00,49.8,9.1,30.21,North,0,0.0,0.0,19,0.00,CLR,FEW,0.00,WeatherDisplay:10.37,2013-03-14 17:20:00,
2013-03-14 13:25:00,49.5,8.8,30.21,North,0,0.0,0.0,19,0.00,CLR,FEW,0.00,WeatherDisplay:10.37,2013-03-14 17:25:00,
2013-03-14 13:30:00,50.0,9.3,30.21,North,0,0.0,0.0,19,0.00,CLR,FEW,0.00,WeatherDisplay:10.37,2013-03-14 17:30:00,
2013-03-14 13:35:00,50.2,9.4,30.21,North,0,0.0,0.0,19,0.00,CLR,FEW,0.00,WeatherDisplay:10.37,2013-03-14 17:35:00,
2013-03-14 13:40:00,50.5,9.7,30.21,North,0,0.0,0.0,19,0.00,CLR,FEW,0.00,WeatherDisplay:10.37,2013-03-14 17:40:00,
2013-03-14 13:45:00,50.2,9.4,30.21,North,0,0.0,0.0,19,0.00,CLR,FEW,0.00,WeatherDisplay:10.37,2013-03-14 17:45:00,
2013-03-14 13:50:00,50.5,9.7,30.21,North,0,0.0,0.0,19,0.00,CLR,FEW,0.00,WeatherDisplay:10.37,2013-03-14 17:50:00,
2013-03-14 13:55:00,51.3,10.3,30.21,North,0,0.0,0.0,19,0.00,CLR,FEW,0.00,WeatherDisplay:10.37,2013-03-14 17:55:00,
2013-03-14 14:00:00,51.3,10.3,30.21,North,0,0.0,0.0,19,0.00,CLR,FEW,0.00,WeatherDisplay:10.37,2013-03-14 18:00:00,
2013-03-14 14:05:00,51.6,10.6,30.21,North,0,0.0,0.0,19,0.00,CLR,FEW,0.00,WeatherDisplay:10.37,2013-03-14 18:05:00,
2013-03-14 14:10:00,51.8,9.6,30.21,North,0,0.0,0.0,18,0.00,CLR,FEW,0.00,WeatherDisplay:10.37,2013-03-14 18:10:00,
2013-03-14 14:15:00,51.6,10.6,30.21,North,0,0.0,0.0,19,0.00,CLR,FEW,0.00,WeatherDisplay:10.37,2013-03-14 18:15:00,
2013-03-14 14:20:00,52.0,9.7,30.21,North,0,0.0,0.0,18,0.00,CLR,FEW,0.00,WeatherDisplay:10.37,2013-03-14 18:20:00,
2013-03-14 14:25:00,52.2,9.9,30.21,North,0,0.0,0.0,18,0.00,CLR,FEW,0.00,WeatherDisplay:10.37,2013-03-14 18:25:00,
2013-03-14 14:30:00,52.3,10.0,30.21,North,0,0.0,0.0,18,0.00,CLR,FEW,0.00,WeatherDisplay:10.37,2013-03-14 18:30:00,
2013-03-14 14:35:00,52.9,10.5,30.21,North,0,0.0,0.0,18,0.00,CLR,FEW,0.00,WeatherDisplay:10.37,2013-03-14 18:35:00,
2013-03-14 14:40:00,53.2,10.8,30.21,North,0,0.0,0.0,18,0.00,CLR,FEW,0.00,WeatherDisplay:10.37,2013-03-14 18:40:00,
2013-03-14 14:45:00,53.6,11.0,30.18,North,0,0.0,0.0,18,0.00,CLR,FEW,0.00,WeatherDisplay:10.37,2013-03-14 18:45:00,
2013-03-14 14:50:00,54.0,11.3,30.18,North,0,0.0,0.0,18,0.00,CLR,FEW,0.00,WeatherDisplay:10.37,2013-03-14 18:50:00,
2013-03-14 14:55:00,54.0,11.3,30.18,North,0,0.0,0.0,18,0.00,CLR,FEW,0.00,WeatherDisplay:10.37,2013-03-14 18:55:00,
2013-03-14 15:01:00,53.6,11.0,30.18,North,0,0.0,0.0,18,0.00,CLR,FEW,0.00,WeatherDisplay:10.37,2013-03-14 19:01:00,
2013-03-14 15:06:00,53.6,11.0,30.18,North,0,0.0,0.0,18,0.00,CLR,FEW,0.00,WeatherDisplay:10.37,2013-03-14 19:06:00,
2013-03-14 15:11:00,53.6,11.0,30.18,North,0,0.0,0.0,18,0.00,CLR,FEW,0.00,WeatherDisplay:10.37,2013-03-14 19:11:00,
2013-03-14 15:16:00,53.4,10.9,30.18,North,0,0.0,0.0,18,0.00,CLR,FEW,0.00,WeatherDisplay:10.37,2013-03-14 19:16:00,
2013-03-14 15:21:00,53.4,10.9,30.18,North,0,0.0,0.0,18,0.00,CLR,FEW,0.00,WeatherDisplay:10.37,2013-03-14 19:21:00,
2013-03-14 15:27:00,54.1,11.5,30.18,North,0,0.0,0.0,18,0.00,CLR,FEW,0.00,WeatherDisplay:10.37,2013-03-14 19:27:00,
2013-03-14 15:32:00,54.0,11.3,30.18,North,0,0.0,0.0,18,0.00,CLR,FEW,0.00,WeatherDisplay:10.37,2013-03-14 19:32:00,
2013-03-14 15:37:00,54.0,11.3,30.18,North,0,0.0,0.0,18,0.00,CLR,FEW,0.00,WeatherDisplay:10.37,2013-03-14 19:37:00,
2013-03-14 15:42:00,54.3,11.6,30.18,North,0,0.0,0.0,18,0.00,CLR,FEW,0.00,WeatherDisplay:10.37,2013-03-14 19:42:00,
2013-03-14 15:47:00,54.5,11.8,30.18,North,0,0.0,0.0,18,0.00,CLR,FEW,0.00,WeatherDisplay:10.37,2013-03-14 19:47:00,
2013-03-14 15:52:00,54.7,11.9,30.18,North,0,0.0,0.0,18,0.00,CLR,FEW,0.00,WeatherDisplay:10.37,2013-03-14 19:52:00,
2013-03-14 15:57:00,55.2,12.4,30.18,North,0,0.0,0.0,18,0.00,CLR,FEW,0.00,WeatherDisplay:10.37,2013-03-14 19:57:00,
2013-03-14 16:02:00,55.4,11.2,30.15,North,0,0.0,0.0,17,0.00,CLR,FEW,0.00,WeatherDisplay:10.37,2013-03-14 20:02:00,
2013-03-14 16:07:00,55.6,11.4,30.15,North,0,0.0,0.0,17,0.00,CLR,FEW,0.00,WeatherDisplay:10.37,2013-03-14 20:07:00,
2013-03-14 16:12:00,55.6,11.4,30.15,North,0,0.0,0.0,17,0.00,CLR,FEW,0.00,WeatherDisplay:10.37,2013-03-14 20:12:00,
2013-03-14 16:17:00,55.8,11.5,30.15,North,0,0.0,0.0,17,0.00,CLR,FEW,0.00,WeatherDisplay:10.37,2013-03-14 20:17:00,
2013-03-14 16:22:00,55.6,11.4,30.15,North,0,0.0,0.0,17,0.00,CLR,FEW,0.00,WeatherDisplay:10.37,2013-03-14 20:22:00,
2013-03-14 16:27:00,55.6,11.4,30.15,North,0,0.0,0.0,17,0.00,CLR,FEW,0.00,WeatherDisplay:10.37,2013-03-14 20:27:00,
2013-03-14 16:32:00,55.4,11.2,30.15,North,0,0.0,0.0,17,0.00,CLR,FEW,0.00,WeatherDisplay:10.37,2013-03-14 20:32:00,
2013-03-14 16:37:00,55.6,11.4,30.15,North,0,0.0,0.0,17,0.00,CLR,FEW,0.00,WeatherDisplay:10.37,2013-03-14 20:37:00,
2013-03-14 16:42:00,55.6,11.4,30.15,North,0,0.0,0.0,17,0.00,CLR,FEW,0.00,WeatherDisplay:10.37,2013-03-14 20:42:00,
2013-03-14 16:47:00,55.4,11.2,30.15,North,0,0.0,0.0,17,0.00,CLR,FEW,0.00,WeatherDisplay:10.37,2013-03-14 20:47:00,
2013-03-14 16:52:00,55.0,12.2,30.15,North,0,0.0,0.0,18,0.00,CLR,FEW,0.00,WeatherDisplay:10.37,2013-03-14 20:52:00,
2013-03-14 16:57:00,55.0,12.2,30.15,North,0,0.0,0.0,18,0.00,CLR,FEW,0.00,WeatherDisplay:10.37,2013-03-14 20:57:00,
2013-03-14 17:03:00,54.5,11.8,30.15,North,0,0.0,0.0,18,0.00,CLR,FEW,0.00,WeatherDisplay:10.37,2013-03-14 21:03:00,
2013-03-14 17:08:00,54.5,11.8,30.15,North,0,0.0,0.0,18,0.00,CLR,FEW,0.00,WeatherDisplay:10.37,2013-03-14 21:08:00,
2013-03-14 17:13:00,54.5,11.8,30.15,North,0,0.0,0.0,18,0.00,CLR,FEW,0.00,WeatherDisplay:10.37,2013-03-14 21:13:00,
2013-03-14 17:18:00,54.5,11.8,30.15,North,0,0.0,0.0,18,0.00,CLR,FEW,0.00,WeatherDisplay:10.37,2013-03-14 21:18:00,
2013-03-14 17:23:00,54.5,11.8,30.15,North,0,0.0,0.0,18,0.00,CLR,FEW,0.00,WeatherDisplay:10.37,2013-03-14 21:23:00,
2013-03-14 17:28:00,54.5,11.8,30.15,North,0,0.0,0.0,18,0.00,CLR,FEW,0.00,WeatherDisplay:10.37,2013-03-14 21:28:00,
2013-03-14 17:33:00,54.3,11.6,30.12,North,0,0.0,0.0,18,0.00,CLR,FEW,0.00,WeatherDisplay:10.37,2013-03-14 21:33:00,
2013-03-14 17:38:00,54.3,11.6,30.12,North,0,0.0,0.0,18,0.00,CLR,FEW,0.00,WeatherDisplay:10.37,2013-03-14 21:38:00,
2013-03-14 17:43:00,54.3,11.6,30.12,North,0,0.0,0.0,18,0.00,CLR,FEW,0.00,WeatherDisplay:10.37,2013-03-14 21:43:00,
2013-03-14 17:48:00,54.3,11.6,30.12,North,0,0.0,0.0,18,0.00,CLR,FEW,0.00,WeatherDisplay:10.37,2013-03-14 21:48:00,
2013-03-14 17:53:00,54.3,11.6,30.12,North,0,0.0,0.0,18,0.00,CLR,FEW,0.00,WeatherDisplay:10.37,2013-03-14 21:53:00,
2013-03-14 17:58:00,54.3,11.6,30.12,North,0,0.0,0.0,18,0.00,CLR,FEW,0.00,WeatherDisplay:10.37,2013-03-14 21:58:00,
2013-03-14 18:03:00,54.1,11.5,30.12,North,0,0.0,0.0,18,0.00,CLR,FEW,0.00,WeatherDisplay:10.37,2013-03-14 22:03:00,
2013-03-14 18:08:00,54.1,11.5,30.12,North,0,0.0,0.0,18,0.00,CLR,FEW,0.00,WeatherDisplay:10.37,2013-03-14 22:08:00,
2013-03-14 18:13:00,54.0,11.3,30.12,North,0,0.0,0.0,18,0.00,CLR,FEW,0.00,WeatherDisplay:10.37,2013-03-14 22:13:00,
2013-03-14 18:18:00,54.0,11.3,30.12,North,0,0.0,0.0,18,0.00,CLR,FEW,0.00,WeatherDisplay:10.37,2013-03-14 22:18:00,
2013-03-14 18:23:00,53.8,11.2,30.12,North,0,0.0,0.0,18,0.00,CLR,FEW,0.00,WeatherDisplay:10.37,2013-03-14 22:23:00,
2013-03-14 18:28:00,53.4,10.9,30.12,North,0,0.0,0.0,18,0.00,CLR,FEW,0.00,WeatherDisplay:10.37,2013-03-14 22:28:00,
2013-03-14 18:33:00,53.2,10.8,30.12,North,0,0.0,0.0,18,0.00,CLR,FEW,0.00,WeatherDisplay:10.37,2013-03-14 22:33:00,
2013-03-14 18:38:00,53.2,10.8,30.12,North,0,0.0,0.0,18,0.00,CLR,FEW,0.00,WeatherDisplay:10.37,2013-03-14 22:38:00,
2013-03-14 18:43:00,53.1,10.6,30.15,North,0,0.0,0.0,18,0.00,CLR,FEW,0.00,WeatherDisplay:10.37,2013-03-14 22:43:00,
2013-03-14 18:48:00,53.1,10.6,30.15,North,0,0.0,0.0,18,0.00,CLR,FEW,0.00,WeatherDisplay:10.37,2013-03-14 22:48:00,
2013-03-14 18:53:00,53.1,10.6,30.15,North,0,0.0,0.0,18,0.00,CLR,FEW,0.00,WeatherDisplay:10.37,2013-03-14 22:53:00,
2013-03-14 18:58:00,52.7,10.3,30.15,North,0,0.0,0.0,18,0.00,CLR,FEW,0.00,WeatherDisplay:10.37,2013-03-14 22:58:00,
2013-03-14 19:03:00,52.5,10.2,30.15,North,0,0.0,0.0,18,0.00,CLR,FEW,0.00,WeatherDisplay:10.37,2013-03-14 23:03:00,
2013-03-14 19:08:00,52.3,10.0,30.15,North,0,0.0,0.0,18,0.00,CLR,FEW,0.00,WeatherDisplay:10.37,2013-03-14 23:08:00,
2013-03-14 19:13:00,52.0,9.7,30.15,North,0,0.0,0.0,18,0.00,CLR,FEW,0.00,WeatherDisplay:10.37,2013-03-14 23:13:00,
2013-03-14 19:18:00,51.6,10.6,30.15,North,0,0.0,0.0,19,0.00,CLR,FEW,0.00,WeatherDisplay:10.37,2013-03-14 23:18:00,
2013-03-14 19:23:00,51.6,10.6,30.15,North,0,0.0,0.0,19,0.00,CLR,FEW,0.00,WeatherDisplay:10.37,2013-03-14 23:23:00,
2013-03-14 19:28:00,51.4,10.5,30.15,North,0,0.0,0.0,19,0.00,CLR,FEW,0.00,WeatherDisplay:10.37,2013-03-14 23:28:00,
2013-03-14 19:33:00,51.3,10.3,30.15,North,0,0.0,0.0,19,0.00,CLR,FEW,0.00,WeatherDisplay:10.37,2013-03-14 23:33:00,
2013-03-14 19:38:00,50.9,10.0,30.15,North,0,0.0,0.0,19,0.00,CLR,FEW,0.00,WeatherDisplay:10.37,2013-03-14 23:38:00,
2013-03-14 19:43:00,50.7,9.9,30.15,North,0,0.0,0.0,19,0.00,CLR,FEW,0.00,WeatherDisplay:10.37,2013-03-14 23:43:00,
2013-03-14 19:48:00,50.5,9.7,30.15,North,0,0.0,0.0,19,0.00,CLR,FEW,0.00,WeatherDisplay:10.37,2013-03-14 23:48:00,
2013-03-14 19:53:00,50.4,9.6,30.15,North,0,0.0,0.0,19,0.00,CLR,FEW,0.00,WeatherDisplay:10.37,2013-03-14 23:53:00,
2013-03-14 19:58:00,50.2,9.4,30.15,North,0,0.0,0.0,19,0.00,CLR,FEW,0.00,WeatherDisplay:10.37,2013-03-14 23:58:00,
2013-03-14 20:03:00,50.0,9.3,30.15,North,0,0.0,0.0,19,0.00,CLR,FEW,0.00,WeatherDisplay:10.37,2013-03-15 00:03:00,
2013-03-14 20:08:00,49.8,9.1,30.15,North,0,0.0,0.0,19,0.00,CLR,FEW,0.00,WeatherDisplay:10.37,2013-03-15 00:08:00,
2013-03-14 20:13:00,49.6,9.0,30.15,North,0,0.0,0.0,19,0.00,CLR,FEW,0.00,WeatherDisplay:10.37,2013-03-15 00:13:00,
2013-03-14 20:18:00,49.6,9.0,30.15,North,0,0.0,0.0,19,0.00,CLR,FEW,0.00,WeatherDisplay:10.37,2013-03-15 00:18:00,
2013-03-14 20:24:00,49.3,8.7,30.15,North,0,0.0,0.0,19,0.00,CLR,FEW,0.00,WeatherDisplay:10.37,2013-03-15 00:24:00,
2013-03-14 20:29:00,49.1,8.5,30.15,North,0,0.0,0.0,19,0.00,CLR,FEW,0.00,WeatherDisplay:10.37,2013-03-15 00:29:00,
2013-03-14 20:34:00,49.1,8.5,30.15,North,0,0.0,0.0,19,0.00,CLR,FEW,0.00,WeatherDisplay:10.37,2013-03-15 00:34:00,
2013-03-14 20:39:00,48.9,8.4,30.15,North,0,0.0,0.0,19,0.00,CLR,FEW,0.00,WeatherDisplay:10.37,2013-03-15 00:39:00,
2013-03-14 20:44:00,48.9,8.4,30.15,North,0,0.0,0.0,19,0.00,CLR,FEW,0.00,WeatherDisplay:10.37,2013-03-15 00:44:00,
2013-03-14 20:49:00,48.7,8.2,30.15,North,0,0.0,0.0,19,0.00,CLR,FEW,0.00,WeatherDisplay:10.37,2013-03-15 00:49:00,
2013-03-14 20:54:00,48.7,8.2,30.15,North,0,0.0,0.0,19,0.00,CLR,FEW,0.00,WeatherDisplay:10.37,2013-03-15 00:54:00,
2013-03-14 20:59:00,48.4,7.9,30.15,North,0,0.0,0.0,19,0.00,CLR,FEW,0.00,WeatherDisplay:10.37,2013-03-15 00:59:00,
2013-03-14 21:04:00,48.2,10.0,30.15,North,0,0.0,0.0,21,0.00,CLR,FEW,0.00,WeatherDisplay:10.37,2013-03-15 01:04:00,
2013-03-14 21:09:00,48.0,10.9,30.15,North,0,0.0,0.0,22,0.00,CLR,FEW,0.00,WeatherDisplay:10.37,2013-03-15 01:09:00,
2013-03-14 21:14:00,47.8,10.8,30.18,North,0,0.0,0.0,22,0.00,CLR,FEW,0.00,WeatherDisplay:10.37,2013-03-15 01:14:00,
2013-03-14 21:19:00,47.7,10.6,30.18,North,0,0.0,0.0,22,0.00,CLR,FEW,0.00,WeatherDisplay:10.37,2013-03-15 01:19:00,
2013-03-14 21:24:00,47.7,10.6,30.18,North,0,0.0,0.0,22,0.00,CLR,FEW,0.00,WeatherDisplay:10.37,2013-03-15 01:24:00,
2013-03-14 21:29:00,47.5,10.5,30.18,North,0,0.0,0.0,22,0.00,CLR,FEW,0.00,WeatherDisplay:10.37,2013-03-15 01:29:00,
2013-03-14 21:34:00,47.5,10.5,30.18,North,0,0.0,0.0,22,0.00,CLR,FEW,0.00,WeatherDisplay:10.37,2013-03-15 01:34:00,
2013-03-14 21:39:00,47.5,10.5,30.18,North,0,0.0,0.0,22,0.00,CLR,FEW,0.00,WeatherDisplay:10.37,2013-03-15 01:39:00,
2013-03-14 21:44:00,47.3,10.3,30.18,North,0,0.0,0.0,22,0.00,CLR,FEW,0.00,WeatherDisplay:10.37,2013-03-15 01:44:00,
2013-03-14 21:49:00,47.3,10.3,30.18,North,0,0.0,0.0,22,0.00,CLR,FEW,0.00,WeatherDisplay:10.37,2013-03-15 01:49:00,
2013-03-14 21:54:00,47.1,12.1,30.18,North,0,0.0,0.0,24,0.00,CLR,FEW,0.00,WeatherDisplay:10.37,2013-03-15 01:54:00,
2013-03-14 21:59:00,46.9,12.0,30.18,North,0,0.0,0.0,24,0.00,CLR,FEW,0.00,WeatherDisplay:10.37,2013-03-15 01:59:00,
2013-03-14 22:04:00,46.8,11.8,30.18,North,0,0.0,0.0,24,0.00,CLR,FEW,0.00,WeatherDisplay:10.37,2013-03-15 02:04:00,
2013-03-14 22:09:00,46.4,11.5,30.18,North,0,0.0,0.0,24,0.00,CLR,FEW,0.00,WeatherDisplay:10.37,2013-03-15 02:09:00,
2013-03-14 22:14:00,46.2,12.3,30.18,North,0,0.0,0.0,25,0.00,CLR,FEW,0.00,WeatherDisplay:10.37,2013-03-15 02:14:00,
2013-03-14 22:19:00,45.9,12.0,30.18,North,0,0.0,0.0,25,0.00,CLR,FEW,0.00,WeatherDisplay:10.37,2013-03-15 02:19:00,
2013-03-14 22:24:00,45.7,13.6,30.18,North,0,0.0,0.0,27,0.00,CLR,FEW,0.00,WeatherDisplay:10.37,2013-03-15 02:24:00,
2013-03-14 22:29:00,45.5,13.4,30.15,North,0,0.0,0.0,27,0.00,CLR,FEW,0.00,WeatherDisplay:10.37,2013-03-15 02:29:00,
2013-03-14 22:34:00,45.3,13.2,30.15,North,0,0.0,0.0,27,0.00,CLR,FEW,0.00,WeatherDisplay:10.37,2013-03-15 02:34:00,
2013-03-14 22:39:00,45.1,13.1,30.15,North,0,0.0,0.0,27,0.00,CLR,FEW,0.00,WeatherDisplay:10.37,2013-03-15 02:39:00,
2013-03-14 22:44:00,45.1,13.9,30.15,North,0,0.0,0.0,28,0.00,CLR,FEW,0.00,WeatherDisplay:10.37,2013-03-15 02:44:00,
2013-03-14 22:49:00,45.0,13.8,30.15,North,0,0.0,0.0,28,0.00,CLR,FEW,0.00,WeatherDisplay:10.37,2013-03-15 02:49:00,
2013-03-14 22:54:00,44.6,13.5,30.15,North,0,0.0,0.0,28,0.00,CLR,FEW,0.00,WeatherDisplay:10.37,2013-03-15 02:54:00,
2013-03-14 22:59:00,44.4,14.1,30.15,North,0,0.0,0.0,29,0.00,CLR,FEW,0.00,WeatherDisplay:10.37,2013-03-15 02:59:00,
2013-03-14 23:04:00,44.2,14.7,30.15,North,0,0.0,0.0,30,0.00,CLR,FEW,0.00,WeatherDisplay:10.37,2013-03-15 03:04:00,
2013-03-14 23:09:00,44.1,14.6,30.15,North,0,0.0,0.0,30,0.00,CLR,FEW,0.00,WeatherDisplay:10.37,2013-03-15 03:09:00,
2013-03-14 23:14:00,43.9,14.4,30.15,North,0,0.0,0.0,30,0.00,CLR,FEW,0.00,WeatherDisplay:10.37,2013-03-15 03:14:00,
2013-03-14 23:19:00,43.7,15.0,30.15,North,0,0.0,0.0,31,0.00,CLR,FEW,0.00,WeatherDisplay:10.37,2013-03-15 03:19:00,
2013-03-14 23:24:00,43.3,14.7,30.15,North,0,0.0,0.0,31,0.00,CLR,FEW,0.00,WeatherDisplay:10.37,2013-03-15 03:24:00,
2013-03-14 23:29:00,43.2,15.3,30.18,North,0,0.0,0.0,32,0.00,CLR,FEW,0.00,WeatherDisplay:10.37,2013-03-15 03:29:00,
2013-03-14 23:34:00,42.8,14.9,30.18,North,0,0.0,0.0,32,0.00,CLR,FEW,0.00,WeatherDisplay:10.37,2013-03-15 03:34:00,
2013-03-14 23:39:00,42.8,14.9,30.18,North,0,0.0,0.0,32,0.00,CLR,FEW,0.00,WeatherDisplay:10.37,2013-03-15 03:39:00,
2013-03-14 23:44:00,42.6,15.5,30.18,North,0,0.0,0.0,33,0.00,CLR,FEW,0.00,WeatherDisplay:10.37,2013-03-15 03:44:00,
2013-03-14 23:49:00,42.4,15.3,30.18,North,0,0.0,0.0,33,0.00,CLR,FEW,0.00,WeatherDisplay:10.37,2013-03-15 03:49:00,
2013-03-14 23:54:00,42.3,15.2,30.18,North,0,0.0,0.0,33,0.00,CLR,FEW,0.00,WeatherDisplay:10.37,2013-03-15 03:54:00,
2013-03-14 23:59:00,42.3,15.9,30.18,North,0,0.0,0.0,34,0.00,CLR,FEW,0.00,WeatherDisplay:10.37,2013-03-15 03:59:00,